GW7217 Weather Reports


time (UTC)temp
C
wind
direction
speed
KPH
gust
KPH
rain 1hr
cm
rain 24hr
cm
rain mn
cm
humidity
%
barometer
mb
20260504030007 8 149 1.6 1.6 0.00 0.00 0.00 50 1014.7
20260504025406 8 137 1.6 1.6 0.00 0.00 0.00 50 1014.6
20260504024805 8 113 1.6 3.2 0.00 0.00 0.00 50 1014.6
20260504024205 8 110 1.6 3.2 0.00 0.00 0.00 49 1014.6
20260504023006 8 120 1.6 1.6 0.00 0.00 0.00 49 1014.7
20260504022405 8 138 1.6 1.6 0.00 0.00 0.00 50 1014.8
20260504021805 8 108 1.6 3.2 0.00 0.00 0.00 48 1014.8
20260504021205 8 120 1.6 3.2 0.00 0.00 0.00 48 1014.7
20260504020606 9 117 1.6 3.2 0.00 0.00 0.00 48 1014.6
20260504020006 9 113 1.6 3.2 0.00 0.00 0.00 48 1014.6
20260504015405 8 146 0.0 1.6 0.00 0.00 0.00 48 1014.6
20260504014806 9 119 1.6 3.2 0.00 0.00 0.00 47 1014.7
20260504013605 9 103 1.6 3.2 0.00 0.00 0.00 47 1014.6
20260504013007 9 102 1.6 3.2 0.00 0.00 0.00 47 1014.5
20260504012405 9 112 1.6 3.2 0.00 0.00 0.00 47 1014.4
20260504011806 9 116 1.6 3.2 0.00 0.00 0.00 47 1014.4
20260504011205 10 108 1.6 3.2 0.00 0.00 0.00 46 1014.4
20260504010605 10 124 1.6 1.6 0.00 0.00 0.00 45 1014.4
20260504005406 10 122 1.6 3.2 0.00 0.00 0.00 43 1014.4
20260504004805 10 132 1.6 3.2 0.00 0.00 0.00 43 1014.4
20260504004205 10 112 1.6 3.2 0.00 0.00 0.00 43 1014.3
20260504003606 10 112 1.6 3.2 0.00 0.00 0.00 43 1014.3
20260504002406 11 133 1.6 1.6 0.00 0.00 0.00 42 1014.3
20260504001805 11 141 1.6 3.2 0.00 0.00 0.00 42 1014.3
20260504000606 11 144 1.6 1.6 0.00 0.00 0.00 41 1014.3
20260504000006 11 158 1.6 3.2 0.00 0.00 0.00 40 1014.3
20260503235405 12 157 1.6 3.2 0.00 0.00 0.00 40 1014.3
20260503234805 12 142 1.6 3.2 0.00 0.00 0.00 39 1014.3
20260503234205 12 169 1.6 3.2 0.00 0.00 0.00 40 1014.3
20260503233605 12 168 1.6 3.2 0.00 0.00 0.00 39 1014.3
20260503233006 12 160 3.2 4.8 0.00 0.00 0.00 38 1014.3
20260503231806 12 167 3.2 4.8 0.00 0.00 0.00 37 1014.3
20260503231205 13 170 3.2 6.4 0.00 0.00 0.00 37 1014.3
20260503230605 13 169 3.2 4.8 0.00 0.00 0.00 36 1014.3
20260503230006 13 176 1.6 3.2 0.00 0.00 0.00 36 1014.4
20260503224805 13 178 1.6 4.8 0.00 0.00 0.00 37 1014.4
20260503224206 13 158 3.2 6.4 0.00 0.00 0.00 36 1014.5
20260503223605 13 169 3.2 6.4 0.00 0.00 0.00 35 1014.4
20260503223006 16 190 1.6 4.8 0.00 0.00 0.00 32 1014.5
20260503222405 15 172 3.2 8.0 0.00 0.00 0.00 33 1014.6
20260503221805 15 146 3.2 6.4 0.00 0.00 0.00 32 1014.4
20260503221206 16 146 3.2 4.8 0.00 0.00 0.00 31 1014.3
20260503220605 16 167 1.6 3.2 0.00 0.00 0.00 33 1014.4
20260503220006 16 173 3.2 6.4 0.00 0.00 0.00 32 1014.4
20260503215405 17 172 3.2 6.4 0.00 0.00 0.00 31 1014.4
20260503214805 17 153 1.6 4.8 0.00 0.00 0.00 32 1014.3
20260503213606 17 155 3.2 4.8 0.00 0.00 0.00 31 1014.3
20260503213006 17 148 3.2 6.4 0.00 0.00 0.00 30 1014.3
20260503212406 17 158 3.2 4.8 0.00 0.00 0.00 31 1014.4
20260503211805 14 154 3.2 4.8 0.00 0.00 0.00 35 1014.4
20260503211205 16 169 3.2 6.4 0.00 0.00 0.00 32 1014.4
20260503205405 16 164 3.2 4.8 0.00 0.00 0.00 33 1014.7
20260503204805 15 168 3.2 6.4 0.00 0.00 0.00 33 1014.7
20260503203605 16 187 3.2 6.4 0.00 0.00 0.00 33 1014.8
20260503203006 16 196 4.8 8.0 0.00 0.00 0.00 30 1014.8
20260503202406 17 188 3.2 8.0 0.00 0.00 0.00 30 1014.9
20260503201805 18 172 3.2 6.4 0.00 0.00 0.00 31 1014.8
20260503201205 17 198 3.2 6.4 0.00 0.00 0.00 31 1015.0
20260503200605 17 185 3.2 6.4 0.00 0.00 0.00 31 1015.1
20260503200006 17 171 3.2 4.8 0.00 0.00 0.00 30 1015.2
20260503194806 16 234 4.8 9.7 0.00 0.00 0.00 29 1015.3
20260503193605 14 221 4.8 8.0 0.00 0.00 0.00 35 1015.5
20260503193005 16 152 3.2 8.0 0.00 0.00 0.00 34 1015.5
20260503191805 14 207 4.8 9.7 0.00 0.00 0.00 34 1015.8
20260503191206 15 178 4.8 8.0 0.00 0.00 0.00 34 1015.8
20260503190606 15 178 3.2 6.4 0.00 0.00 0.00 34 1015.8
20260503190006 15 197 3.2 8.0 0.00 0.00 0.00 35 1015.9
20260503184805 15 178 3.2 4.8 0.00 0.00 0.00 33 1016.0
20260503184206 16 192 1.6 4.8 0.00 0.00 0.00 36 1016.1
20260503183605 14 213 3.2 8.0 0.00 0.00 0.00 33 1016.2
20260503183006 14 170 3.2 4.8 0.00 0.00 0.00 32 1016.2
20260503182405 15 194 3.2 8.0 0.00 0.00 0.00 33 1016.3
20260503181805 15 200 3.2 8.0 0.00 0.00 0.00 34 1016.3
20260503181206 15 252 3.2 6.4 0.00 0.00 0.00 33 1016.3
20260503180605 15 188 4.8 6.4 0.00 0.00 0.00 33 1016.5
20260503180006 15 158 3.2 4.8 0.00 0.00 0.00 34 1016.6
20260503175405 15 188 3.2 8.0 0.00 0.00 0.00 34 1016.6
20260503174806 13 186 3.2 6.4 0.00 0.00 0.00 36 1016.7
20260503174205 14 205 3.2 6.4 0.00 0.00 0.00 34 1016.7
20260503173606 15 174 1.6 4.8 0.00 0.00 0.00 33 1016.6
20260503172405 13 192 1.6 4.8 0.00 0.00 0.00 35 1017.0
20260503171806 13 192 3.2 4.8 0.00 0.00 0.00 36 1016.9
20260503171206 13 186 3.2 8.0 0.00 0.00 0.00 36 1017.0
20260503170605 14 180 3.2 4.8 0.00 0.00 0.00 34 1017.0
20260503150605 12 185 3.2 6.4 0.00 0.00 0.00 38 1018.0
20260503130606 8 178 1.6 3.2 0.00 0.00 0.00 55 1018.3
20260503110605 2 165 0.0 1.6 0.00 0.00 0.00 80 1017.7
20260503081206 0 154 0.0 1.6 0.00 0.00 0.00 82 1016.5
20260503080605 1 140 0.0 1.6 0.00 0.00 0.00 81 1016.6
20260503072405 1 193 0.0 1.6 0.00 0.00 0.00 76 1016.3
20260503071806 1 182 1.6 1.6 0.00 0.00 0.00 75 1016.3
20260503071205 1 224 0.0 1.6 0.00 0.00 0.00 76 1016.2
20260503054205 1 171 0.0 1.6 0.00 0.00 0.00 77 1016.4
20260503053605 1 182 0.0 1.6 0.00 0.00 0.00 76 1016.5
20260503053006 1 186 0.0 1.6 0.00 0.00 0.00 76 1016.5
20260503052405 1 174 0.0 1.6 0.00 0.00 0.00 77 1016.5
20260503051805 1 192 0.0 1.6 0.00 0.00 0.00 76 1016.5
20260503051205 1 206 0.0 1.6 0.00 0.00 0.00 74 1016.6
20260503050606 1 222 1.6 1.6 0.00 0.00 0.00 73 1016.6
20260503050006 2 208 1.6 1.6 0.00 0.00 0.00 72 1016.6
20260503045405 2 190 1.6 1.6 0.00 0.00 0.00 72 1016.7
20260503044805 2 206 1.6 1.6 0.00 0.00 0.00 71 1016.6
20260503043606 2 182 0.0 1.6 0.00 0.00 0.00 73 1016.7
20260503042406 2 172 1.6 1.6 0.00 0.00 0.00 73 1016.6
20260503041805 2 168 1.6 1.6 0.00 0.00 0.00 73 1016.6
20260503041205 2 174 0.0 1.6 0.00 0.00 0.00 72 1016.6
20260503040605 2 172 0.0 1.6 0.00 0.00 0.00 72 1016.6
20260503040006 2 169 0.0 1.6 0.00 0.00 0.00 72 1016.6
20260503035406 3 191 0.0 1.6 0.00 0.00 0.00 71 1016.7
20260503034206 3 170 0.0 1.6 0.00 0.00 0.00 72 1016.6
20260503033006 3 203 0.0 1.6 0.00 0.00 0.00 72 1016.7
20260503032406 3 220 0.0 1.6 0.00 0.00 0.00 71 1016.8
20260503031805 3 219 0.0 1.6 0.00 0.00 0.00 71 1016.8
20260503031205 3 217 1.6 3.2 0.00 0.00 0.00 70 1016.8
20260503030605 3 212 0.0 1.6 0.00 0.00 0.00 70 1016.8